Погода в Нижней Маре

Россия / Карачаево-Черкесская Республика     43°45′47″N   42°05′10″E
темп.,
°C
ветер,
м/с
пор.,
м/с
влажн.,
%
обл.,
%
осадки,
мм/ч
давл.,
гПа
погр.,
м
15 мая, сб
сб1500:00+11юв34675 0.0 101662
03:00+10юв3363100 0.0 101648
06:00+11юв34602 0.0 101663
09:00+22св12360 0.0 1014796
12:00+24с44301 0.0 10132410
15:00+23ссв434028 0.0 10121602
18:00+12ююв2494100 7.7 1017133
21:00+11юв3390100 7.7 101646
16 мая, вс
вс1600:00+10юв2386100 0.0 101437
03:00+9юв338474 0.0 101442
06:00+10юв337929 0.0 101358
09:00+21ссз01415 0.0 1009593
12:00+23ссз32407 0.0 10071584
15:00+24ссз234575 0.3 10061708
18:00+17в11839 0.4 100715
21:00+14юв3381100 0.4 100843
17 мая, пн
пн1700:00+12юв346816 0.0 100856
03:00+11юв35632 0.0 100863
06:00+12юв34620 0.0 100878
09:00+23юв12325 0.0 1006525
12:00+25с4537100 0.0 10052089
15:00+20с325897 4.4 1007703
18:00+14ссз2395100 2.5 1011368
21:00+13ссв1299100 4.3 1012120
18 мая, вт
вт1800:00+11ю229762 3.8 101288
03:00+9ююз119696 7.5 101311
06:00+10ю119477 0.4 101465
09:00+11сз229269 1.7 1014394
12:00+16ссз3364100 1.8 10131228
15:00+14ссз2279100 4.9 1014705
18:00+13сз1289100 3.5 1015269
21:00+9ю11961 4.4 101810
19 мая, ср
ср1900:00+7ююв229466 0.0 101823
03:00+6юв33910 0.0 101945
06:00+7юв23860 0.0 101963
09:00+17св11465 0.0 1016696
12:00+20ссз3243100 0.0 10141415
15:00+21сз32525 0.0 10131417
18:00+18сз22726 0.0 1014431
21:00+12ю21960 0.0 101517